Regional Weather Roundup
Issued by NWS Charleston, SC

Current Version | Previous Version | Graphics & Text | Print | Product List | Glossary On
Versions: 1 2 3 4 5 6 7 8 9 10 11 12 13 14 15 16 17 18 19 20 21 22 23 24 25 26 27 28 29 30 31 32 33 34 35 36 37 38 39 40 41 42 43 44 45 46 47 48 49 50
000
ASUS42 KCHS 070327
RWRCHS

REGIONAL WEATHER ROUNDUP
NATIONAL WEATHER SERVICE CHARLESTON SC
1100 PM EDT WED MAY 06 2015

NOTE: "FAIR" INDICATES FEW OR NO CLOUDS BELOW 12,000 FEET WITH NO
SIGNIFICANT WEATHER AND/OR OBSTRUCTIONS TO VISIBILITY.

NOT ALL STATIONS ARE QUALITY CONTROLLED BY THE NATIONAL
WEATHER SERVICE. USE DATA WITH CAUTION...ESPECIALLY
DEWPOINT OBSERVATIONS.

SCZ027-030-031-034>040-042>050-070400-
...SOUTHEAST SOUTH CAROLINA...

CITY           SKY/WX    TMP DP  RH WIND       PRES   REMARKS
N CHARLESTON   PTCLDY    65  57  75 NE6       30.10S
WATERFRONT PRK NOT AVBL
MOUNT PLEASANT FAIR      64  59  82 MISG      30.09F
PINOPOLIS      NOT AVBL
MONCKS CORNER  FAIR      64  57  77 CALM      30.11S
SUMMERVILLE    FAIR      61  59  94 CALM      30.11S
BEAUFORT MCAS  MOCLDY    67  62  84 NW3       30.09S
BEAUFORT ARPT  FAIR      68  63  83 CALM      30.08F
HILTON HEAD IS MOCLDY    70  63  78 N6        30.10S
WALTERBORO     MOCLDY    63  55  77 NE6       30.11S
ALLENDALE      FAIR      66  57  72 CALM      30.10S

...SOUTHERN MIDLANDS AND PEE DEE...

CITY           SKY/WX    TMP DP  RH WIND       PRES   REMARKS
GEORGETOWN     NOT AVBL
KINGSTREE      NOT AVBL
ORANGEBURG     MOCLDY    66  56  70 CALM      30.12R
BARNWELL       FAIR      61  57  88 CALM      30.12S
AIKEN          FAIR      63  54  72 CALM      30.16S
MANNING        FAIR      59  54  82 CALM      30.12S
COLUMBIA       PTCLDY    64  56  75 CALM      30.12R
SUMTER         PTCLDY    63  52  67 NE3       30.11R
FLORENCE       MOCLDY    66  54  65 E5        30.13S
MYRTLE BEACH   CLOUDY    66  55  68 N8        30.12F
N MYRTLE BEACH CLOUDY    66  57  72 NE7       30.11S

$$

GAZ063-065-086>088-099>101-113>116-118-119-134>141-150-070400-
...SOUTHEAST GEORGIA...

CITY           SKY/WX    TMP DP  RH WIND       PRES   REMARKS
SAVANNAH ARPT  CLOUDY    69  59  70 E3        30.10S
HUNTER AAF     CLOUDY    68  62  79 CALM      30.07F
FORT STEWART   MOCLDY    64  60  89 CALM      30.08S
STATESBORO       N/A     63  61  95 CALM      30.10S
SYLVANIA       MOCLDY    63  60  91 CALM      30.11S
CLAXTON        FAIR      63  61  94 CALM      30.10F

...CSRA...CENTRAL AND FAR SOUTHEAST GEORGIA...

CITY           SKY/WX    TMP DP  RH WIND       PRES   REMARKS
THOMSON        CLEAR     61  60  97 CALM      30.17S
AUGUSTA-BUSH   PTCLDY    60  56  86 CALM      30.11R
AUGUSTA-DANIEL PTCLDY    73  51  46 CALM      30.13R
SWAINSBORO     FAIR      61  50  67 CALM      30.12S
VIDALIA        CLEAR     64  59  82 CALM      30.12R
EASTMAN        FAIR      60  60 100 CALM      30.14R
HAZLEHURST     FAIR      68  60  74 CALM      30.10S
ALMA           FAIR      63  60  90 CALM      30.10S
WAYCROSS       CLEAR     67  65  93 CALM      30.10S
JESUP          FAIR      64  63  94 CALM      30.10F
BAXLEY         FAIR      68  64  88 CALM      30.10S
BRUNSWICK      MOCLDY    64  61  88 CALM      30.09F
SAINT SIMONS   MOCLDY    68  61  78 NE6       30.08F

$$

SCZ027-028-034-036>038-045-046-048>050-GAZ119-141-070400-
...LAKE AND SUPPLEMENTAL COASTAL OBSERVATIONS...

STATION/POSITION TIME  TEMP    WIND        PRES    WAVE   SWELL
                       AIR SEA DIR/SP/G            HT/PER HT/PER/DIR
                 (UTC) (F)     (DEG/KT/KT) (MB)    (FT/S) (FT/S/D)
UPR LAKE MARION  NOT AVBL
WINYAH BAY       0245   67     360/  6     1018.0S
LAKE MURRAY      0200   70        CALM     1019.3R
ACE BASIN NERRS  NOT AVBL
FORT PULASKI     0300   70 72   10/  5/  6 1019.3F
SAPELO ISLAND    0300   67      40/  3     1019.0S

$$

ANZ835-935-AMZ111-154-330-350-352-354-370-450-454-472-070400-
...C-MAN AND BUOY OBSERVATIONS...

STATION/POSITION TIME  TEMP    WIND        PRES    WAVE   SWELL
                       AIR SEA DIR/SP/G            HT/PER HT/PER/DIR
                 (UTC) (F)     (DEG/KT/KT) (MB)    (FT/S) (FT/S/D)
BUOY 41004       0250   71 74   20/ 21/ 25 1016.3F   8/ 8   3/10
BUOY 41008       0250   70 70   50/ 10/ 14 1018.1F   7/10   7/110/10
FOLLY BEACH CMAN 0300   68      20/ 11/ 14 1018.8F
CAPERS NEARSHORE 0208   70      50/ 17/ 21 1018.8R
FRIPP NEARSHORE  0200   71      60/ 16/ 19 1018.3R


STATION/POSITION TIME  TEMP    WIND        PRES    WAVE   SWELL
                       AIR SEA DIR/SP/G            HT/PER HT/PER/DIR
                 (UTC) (F)     (DEG/KT/KT) (MB)    (FT/S) (FT/S/D)
5E ST. MARYS GA  0221      71                N/A     7/10   2/ 90/11
FRYING PAN BUOY  0250   72 72   70/ 19/ 25 1018.3S   8/ 9   5/150/ 9
BUOY 41025       0250   71 75  100/ 16/ 19 1020.5F   6/ 6   3/120/ 9
CAPE LOOKOUT NC  0300   69      70/ 13/ 15 1019.8F
BUOY 41002       0250   71 71  130/ 17/ 21 1016.4R   8/ 7
BUOY 41010       0220   74 77  320/ 17/ 21 1014.6R
ST AUGUSTINE FL  0300   71 73   10/ 13/ 14 1018.6R


$$



USA.gov is the U.S. government's official web portal to all federal, state and local government web resources and services.